Regional Weather Roundup
Issued by NWS San Angelo, TX

Home | Current Version | Previous Version | Text Only | Print | Product List | Glossary On
Versions: 1 2 3 4 5 6 7 8 9 10 11 12 13 14 15 16 17 18 19 20 21 22 23 24 25 26 27 28 29 30 31 32 33 34 35 36 37 38 39 40 41 42 43 44 45 46 47 48 49 50
000
ASUS44 KSJT 211210
RWRSJT
WEST CENTRAL TEXAS REGIONAL WEATHER ROUNDUP
NATIONAL WEATHER SERVICE SAN ANGELO TX
600 AM CST SUN DEC 21 2014

NOTE: "FAIR" INDICATES FEW OR NO CLOUDS BELOW 12,000 FEET WITH NO
SIGNIFICANT WEATHER AND/OR OBSTRUCTIONS TO VISIBILITY.

TXZ049-054-064>066-071>073-076>078-098-099-113-114-127-128-139-140-
154-155-168>170-211300
...LOCATIONS ACROSS WEST CENTRAL TEXAS...

CITY           SKY/WX    TMP DP  RH WIND       PRES   REMARKS
SAN ANGELO     CLOUDY    49  45  86 S10       30.02F
ABILENE        CLOUDY    47  43  86 S10       30.01S
DYESS AFB      NOT AVBL
JUNCTION       CLOUDY    48  43  82 S8        30.05S
SWEETWATER     CLOUDY    47  44  88 S10       30.02S
BROWNWOOD      CLOUDY    46  43  87 S10       30.06F
COLEMAN        CLOUDY    46  45  97 S8        30.04F
SONORA         CLOUDY    46  45  93 S7        30.08F FOG
OZONA          CLOUDY    45  45 100 S8        30.05S FOG
BRADY          CLOUDY    45  43  93 SE7       30.04S
$$

TEXAS PANHANDLE/OKLAHOMA PANHANDLE

CITY           SKY/WX    TMP DP  RH WIND       PRES   REMARKS
AMARILLO       FOG       33  33 100 S8        29.87S VSB 1/2 WCI  26
BORGER         MOCLDY    40  36  86 S5        29.88F WCI  37
CANADIAN       CLOUDY    42  41  97 S6        29.91S WCI  38
DALHART        CLEAR     23  19  85 CALM      29.84F
DUMAS          FOG       26  25  96 CALM      29.85F VSB<1/4
GUYMON         NOT AVBL
HEREFORD       SUNNY     27  24  91 CALM      29.87F
PAMPA          CLOUDY    40  38  93 S10       29.88R WCI  33
PERRYTON       CLOUDY    40  39  96 S13       29.87F WCI  32
$$

SOUTHERN PANHANDLE/SOUTH PLAINS/ROLLING PLAINS

CITY           SKY/WX    TMP DP  RH WIND       PRES   REMARKS
LUBBOCK        MOCLDY    38  37  97 SW9       29.92F FOG     WCI  31
SNYDER         CLOUDY    46  43  90 S9        29.98F
CHILDRESS      CLOUDY    42  40  92 SE12      29.94F WCI  36
SEMINOLE       FOG       39  39 100 SW8       29.97F VSB 1   WCI  34
$$

PERMIAN BASIN

CITY           SKY/WX    TMP DP  RH WIND       PRES   REMARKS
MIDLAND        FOG       44  43  96 S9        29.98S VSB 3/4 WCI  39
ODESSA         FOG       42  41  96 S8        29.99R VSB 3/4 WCI  37
WINK           FOG       35  32  88 CALM      29.98S VSB 1/4
$$

FAR WEST/SOUTHWEST MOUNTAINS/TRANS PECOS

CITY           SKY/WX    TMP DP  RH WIND       PRES   REMARKS
ALPINE         MOSUNNY   42  27  55 SW6       30.10R WCI  38
DRYDEN           N/A     49  48  97 SE5       30.02S
EL PASO        MOCLDY    42  29  59 S5        30.03F WCI  39
FORT STOCKTON  MOCLDY    39  31  72 SW8       30.00R WCI  33
GUADALUPE PASS NOT AVBL
MARFA          PTCLDY    25  23  93 NE3       30.07R
PECOS          MOSUNNY   29  22  75 CALM      29.99S
$$

DALLAS/FORT WORTH METROPLEX

CITY           SKY/WX    TMP DP  RH WIND       PRES   REMARKS
DFW AIRPORT    CLOUDY    47  43  86 SE9       30.10S
FTW MEACHAM    CLOUDY    48  44  86 SE9       30.09S FOG
DAL-EXECUTIVE  CLOUDY    48  44  86 S5        30.11S
GRAND PRAIRIE  NOT AVBL
ADDISON        NOT AVBL
MESQUITE       NOT AVBL
LANCASTER      CLOUDY    46  43  88 SE3       30.13S
$$

NORTH CENTRAL TEXAS

CITY           SKY/WX    TMP DP  RH WIND       PRES   REMARKS
SHRMAN/DENISON CLOUDY    47  46  96 SE7       30.10S FOG
GAINESVILLE    CLOUDY    46  44  94 S8        30.10F FOG
BRIDGEPORT     CLOUDY    47  47 100 SE6       30.09F
DENTON         CLOUDY    47  44  90 S8        30.09F
WAXAHACHIE     CLOUDY    46  46  99 SE3       30.12S
GRANBURY       CLOUDY    49  46  88 SE6       30.10F FOG
$$

WESTERN NORTH TEXAS

CITY           SKY/WX    TMP DP  RH WIND       PRES   REMARKS
WICHITA FALLS  CLOUDY    44  41  89 SE13      30.03F WCI  38
VERNON         CLOUDY    44  39  82 SE8       30.01F WCI  39
BRECKENRIDGE   CLOUDY    49  42  79 S10       30.04R
COMANCHE       CLOUDY    46  44  91 S9        30.07S
$$

CENTRAL AND SOUTH CENTRAL TEXAS

CITY           SKY/WX    TMP DP  RH WIND       PRES   REMARKS
AUSTIN/BERGSTM CLOUDY    50  46  86 E5        30.09F
WACO           CLOUDY    47  44  90 SE5       30.12R
HILLSBORO      CLOUDY    47  44  87 SE7       30.11S
TEMPLE         CLOUDY    46  43  87 E5        30.10S
KILLEEN-GRAY   CLOUDY    47  45  90 S3        30.09F
FORT HOOD      NOT AVBL
GEORGETOWN     CLOUDY    48  45  87 SE5       30.08F
LAGO VISTA     CLOUDY    49  46  90 SE3       30.08F
SAN MARCOS     CLOUDY    50  46  87 E5        30.10R
NEW BRAUNFELS  CLOUDY    52  47  83 SE5       30.09R
RANDOLPH AFB   CLOUDY    51  48  90 E2        30.09
SAN ANTONIO    CLOUDY    52  48  86 SE6       30.09R
STINSON        CLOUDY    52  48  86 SE6       30.08R
PLEASANTON     NOT AVBL
LA GRANGE      CLOUDY    52  50  94 CALM      30.09S
GIDDINGS       CLOUDY    49  47  92 CALM      30.15S
$$

EAST TEXAS

CITY           SKY/WX    TMP DP  RH WIND       PRES   REMARKS
PARIS          CLOUDY    45  39  81 SE6       30.15R
CLARKSVILLE    NOT AVBL
TYLER          CLOUDY    44  41  89 SE5       30.12F
LONGVIEW       CLOUDY    41  39  93 E3        30.14R FOG
PALESTINE      CLOUDY    44  44 100 CALM      30.14F FOG
NACOGDOCHES    CLOUDY    37  36  93 N3        30.14S
$$

TEXAS HILL COUNTRY AND EDWARDS PLATEAU

CITY           SKY/WX    TMP DP  RH WIND       PRES   REMARKS
LLANO          CLOUDY    48  45  87 CALM      30.12R
HORSESHOE BAY  CLOUDY    49  46  88 CALM      30.08F
KERRVILLE      CLOUDY    49  45  88 S7        30.07F
FREDERICKSBRG  CLOUDY    47  43  85 S7        30.06S
ROCKSPRINGS    CLOUDY    45  45 100 S6        30.07S FOG
HONDO          CLOUDY    50  46  86 SW5       30.11S
UVALDE         CLOUDY    48  44  88 CALM      30.10R
DEL RIO        CLOUDY    49  46  90 SE9       30.06S
$$

SOUTHEAST TEXAS

CITY           SKY/WX    TMP DP  RH WIND       PRES   REMARKS
COLLEGE STN    CLOUDY    49  47  93 CALM      30.13R
CALDWELL       CLOUDY    46  46 100 CALM      30.15S FOG
CROCKETT       CLOUDY    46  46 100 CALM      30.17R
BRENHAM        CLOUDY    51  49  93 CALM      30.13R
HUNTSVILLE     CLOUDY    47  46  97 CALM      30.12S FOG
CONROE         CLOUDY    47  44  90 CALM      30.13S
HOUSTON BUSH   CLOUDY    48  44  86 NE7       30.12S
HOUSTON HOBBY  CLOUDY    50  46  86 NE6       30.11S
PERLAND        CLOUDY    51  46  83 E13       30.13R
WHARTON        CLOUDY    51  49  90 CALM      30.12S
$$

THE UPPER TEXAS COAST

CITY           SKY/WX    TMP DP  RH WIND       PRES   REMARKS
ORANGE         CLOUDY    42  42  99 CALM      30.13S FOG
PORT ARTHUR    CLOUDY    45  43  93 N6        30.11F
GALVESTON      CLOUDY    51  49  92 N9        30.11S
ANGLETON       CLOUDY    50  49  96 N8        30.11R
BAY CITY         N/A     53  51  94 CALM      30.11R
$$

TEXAS COASTAL BEND, RIO GRANDE PLAINS DEEP SOUTH TEXAS

CITY           SKY/WX    TMP DP  RH WIND       PRES   REMARKS
VICTORIA       CLOUDY    53  51  93 NE8       30.10F
BEEVILLE       FAIR      49  49  99 N3        30.08S
ROCKPORT       CLOUDY    54  52  93 NE8       30.09S
PORT ARANSAS   CLOUDY    55  53  92 NE10      30.08F
PORT LAVACA    CLOUDY    52  51  96 NE7       30.10F
CORPUS CHRISTI CLOUDY    54  52  93 NE9       30.08F
KINGSVILLE NAS CLOUDY    54  52  93 N6        30.10S
COTULLA        CLOUDY    51  49  92 CALM      30.10S FOG
LAREDO         NOT AVBL
BROWNSVILLE    CLOUDY    59  56  89 NW6       30.04S
PORT ISABEL    CLOUDY    61  58  90 N9        30.04S
HEBBRONVILLE   HVY RAIN  52  50  92 CALM      30.10S
MCALLEN        CLOUDY    54  53  97 NW7       30.09R FOG
WESLACO        DRIZZLE   55  52  89 N6        30.07R
FALFURRIAS     CLOUDY    54  51  90 CALM      30.10R
EDINBURG       CLOUDY    56  52  86 NW7       30.09R
$$



USA.gov is the U.S. government's official web portal to all federal, state and local government web resources and services.